MTPPMHTG

Guest
Details From MTPP - Toussaint Louverture Intl
To MHTG - Tegucigalpa Toncontin Intl
Flight Number -
Tags Generated
Created
Modified
Stats Distance 901 nm / 1,669 km
Max Altitude 0 ft / 0 m
Waypoints 4
Social Downloads 1
Likes 0
Share VATSIM

Download

Looking for another format? Having issues loading an existing format? Contact us
Advertisement - Login to hide

Notes

Generated

Route

MTPP URMAN TNT MHTG

ID Type Via Altitude Latitude Longitude Leg Dist Tot Dist Heading (true) Name
O MTPP APT - 0 ft / 0 m 18.57933˚ -72.30692˚ - 0 nm - -
URMAN FIX - 0 ft / 0 m 17.51016˚ -76.24860˚ 234 nm 234 nm 255° / 253° -
TNT NDB - 0 ft / 0 m 14.06091˚ -87.22047˚ 666 nm 900 nm 253° / 250° TONCONTIN NDB
O MHTG APT - 0 ft / 0 m 14.05292˚ -87.22000˚ 0 nm 901 nm 177° / 177° -

Altitude Profile

Advertisement - Login to hide

Weather


0- 5 10 15 20 25 30 35+ Temperature / ° C

Clouds and Precipitation
Forecast for 2018-05-21 12:00 UTC. Updated 22 minutes ago

Ground ~20,000 ft ~40,000 ft Winds

MTPP

Details ICAO MTPP (PAP)
Name TOUSSAINT LOUVERTURE INTL
Region Haiti
Timezone America/Port-au-Prince (UTC-4.0)
Stats Elevation 122 ft / 37 m (AMSL)
Location 18.580051° -72.292540°
Runways 1
Magnetic Variation 10.229° W

METAR

MTPP 211000Z 13006KT 8000 FEW016 25/21 Q1013 A2991

Decode

TAF

Not found

Departure Runways

ID Width Length Bearing (true) Bearing (mag) Surface Threshold Offset Overrun Length
10 141 ft / 43 m 9,963 ft / 3,037 m 86.96° 97.19° Asphalt 0 ft / 0 m 0 ft / 0 m
28 141 ft / 43 m 9,963 ft / 3,037 m 266.97° 277.20° Asphalt 0 ft / 0 m 0 ft / 0 m

MHTG

Details ICAO MHTG (TGU)
Name Tegucigalpa Toncontin Intl
Region Honduras
Timezone America/Tegucigalpa (UTC-6.0)
Stats Elevation 3,294 ft / 1,004 m (AMSL)
Location 14.060883° -87.217197°
Runways 1
Magnetic Variation 0.720° W

METAR

MHTG 211100Z 00000KT 5000 FEW004 SCT024 18/18 Q1016 A3000 NOSIG

Decode

TAF

Not found

Destination Runways

ID Width Length Bearing (true) Bearing (mag) Surface Threshold Offset Overrun Length
02 148 ft / 45 m 6,140 ft / 1,872 m 18.87° 19.59° Asphalt 670 ft / 204 m 100 ft / 30 m
20 148 ft / 45 m 6,140 ft / 1,872 m 198.87° 199.59° Asphalt 0 ft / 0 m 200 ft / 61 m

Popular Alternatives